#timestamp,LO_Frequency,Hit,StdDev 
1589994015.9,286047000.3,P
1589994035.7,286047000.3,N
1589994055.5,286047002.4,N
1589994075.4,286047002.1,N
1589994095.2,286047001.7,N
1589994115.0,286047002.2,N
1589994115.9,286047002.2,N
1589994135.8,286047002.8,N
1589994155.6,286046999.8,N
1589994175.5,286047000.5,N
1589994195.3,286046999.9,N
1589994215.1,286047001.0,N
1589994235.9,286047000.3,N
1589994255.7,286047000.2,N
1589994275.5,286047002.7,N
1589994295.4,286046999.9,N
1589994315.2,286046998.7,N
1589994335.1,286046998.9,N
1589994336.0,286046998.9,N
1589994355.8,286046999.4,N
1589994375.6,286046996.5,N
1589994395.5,286046997.3,N
1589994415.3,286046997.4,N
1589994435.1,286046997.8,N
1589994455.9,286046995.6,N
1589994475.7,286046997.5,N
1589994495.6,286046994.9,N
1589994515.4,286046997.7,N
1589994535.2,286046996.7,N
1589994555.1,286046999.6,N
1589994556.0,286046999.6,N
1589994575.8,286046999.1,N
1589994595.6,286046996.9,N
1589994615.5,286046998.9,N
1589994635.3,286047001.2,N
1589994655.2,286046998.1,N
1589994675.9,286046996.6,N
1589994695.7,286046997.8,N
1589994715.6,286046997.3,N
1589994735.4,286046994.9,N
1589994755.2,286046999.4,N
1589994775.1,286046996.6,N
1589994776.0,286046996.6,N
1589994795.8,286046999.3,N
1589994815.7,286047011.9,Y
1589994835.5,286047002.3,P
1589994855.3,286047002.6,N
1589994875.2,286047002.2,N
1589994895.0,286047002.4,N
1589994895.9,286047002.4,N
1589994915.7,286047002.4,N
1589994935.6,286047001.6,N
1589994955.4,286047000.2,N
1589994975.3,286046999.8,N
1589994995.1,286047000.5,N
1589994996.0,286047000.5,N
1589995015.8,286047000.9,N
1589995035.7,286046998.2,N
1589995055.5,286047001.0,N
1589995075.3,286046999.4,N
1589995095.2,286046999.6,N
1589995115.0,286046995.3,Y
1589995115.9,286046995.3,P
1589995135.8,286046993.7,N
1589995155.6,286046993.8,N
1589995175.4,286046994.1,N
1589995195.3,286046994.8,N
1589995215.1,286046994.3,N
1589995235.8,286046994.7,N
1589995255.7,286046992.1,Y
1589995275.5,286046997.6,P
1589995295.4,286046995.0,P
1589995315.2,286046996.8,N
1589995335.0,286046997.4,N
1589995335.9,286046997.4,N
1589995355.8,286046996.8,Y
1589995375.6,286046999.8,P
1589995395.5,286047000.3,N
1589995415.3,286047001.0,N
1589995435.1,286046999.7,N
1589995455.9,286047000.3,N
1589995475.7,286047000.6,N
1589995495.5,286047002.5,N
1589995515.4,286047002.7,N
1589995535.2,286047002.1,N
1589995555.0,286047002.1,N
1589995555.9,286047002.1,N
1589995575.8,286047002.2,N
1589995595.6,286047000.3,N
1589995615.5,286047000.3,N
1589995635.3,286046999.8,N
1589995655.1,286047001.8,N
1589995675.9,286047002.6,N
1589995695.7,286047002.7,N
1589995715.5,286047002.0,N
1589995735.4,286047002.5,N
1589995755.2,286047000.2,N
1589995775.1,286047000.4,N
1589995776.0,286047000.4,N
1589995795.8,286047000.2,N
1589995815.6,286047000.4,N
1589995835.5,286047000.6,N
1589995855.3,286047000.5,N
1589995875.1,286046998.6,N
1589995895.9,286046998.3,N
1589995915.7,286047000.4,N
1589995935.6,286046998.2,N
1589995955.4,286046999.9,N
1589995975.2,286047001.8,N
1589995995.1,286047001.4,N
1589995996.0,286047001.4,N
1589996015.8,286047003.7,N
1589996035.6,286047004.0,N
1589996055.5,286047004.4,Y
1589996075.3,286047002.5,P
1589996095.2,286047002.2,P
1589996115.9,286046999.8,N
1589996135.7,286047003.6,Y
1589996155.6,286047003.7,P
1589996175.4,286047002.3,N
1589996195.2,286047002.6,N
1589996215.1,286047001.4,N
1589996216.0,286047001.4,N
1589996235.8,286047002.8,Y
1589996255.7,286046998.7,P
1589996275.5,286046999.6,N
1589996295.3,286046997.5,N
1589996315.2,286046998.2,N
1589996335.9,286046999.5,N
1589996355.7,286046996.5,N
1589996375.6,286047001.1,N
1589996395.4,286047000.7,N
1589996415.2,286047001.0,N
1589996435.1,286047001.0,N
1589996436.0,286047001.0,N
1589996455.8,286046998.8,N
1589996475.7,286046998.9,N
1589996495.5,286047000.0,N
1589996515.3,286047000.9,N
1589996535.2,286047000.1,N
1589996555.0,286046999.8,N
1589996555.9,286046999.8,N
1589996575.8,286047000.8,N
1589996595.6,286046998.8,N
1589996615.4,286046998.9,N
1589996635.3,286047002.5,N
1589996655.1,286047002.3,N
1589996675.8,286047000.2,N
1589996695.7,286047002.5,N
1589996715.5,286047002.2,N
1589996735.4,286047001.9,N
1589996755.2,286047002.3,N
1589996775.0,286047003.7,N
1589996775.9,286047003.7,N
1589996795.8,286047003.0,N
1589996815.6,286047003.4,N
1589996835.4,286047003.2,N
1589996855.3,286047003.5,N
1589996875.1,286047002.9,N
1589996895.9,286047004.9,N
1589996915.7,286047005.0,Y
1589996935.5,286047006.0,P
1589996955.4,286047004.5,N
1589996975.2,286047007.5,P
1589996995.1,286047003.6,N
1589996996.0,286047003.6,N
1589997015.8,286047004.4,N
1589997035.6,286047002.0,N
1589997055.5,286047004.1,N
1589997075.3,286047005.9,Y
1589997095.2,286047000.6,P
1589997115.9,286047000.3,N
1589997135.7,286047000.5,N
1589997155.6,286046999.0,N
1589997175.4,286047000.8,N
1589997195.2,286047002.0,N
1589997215.1,286047001.9,N
1589997216.0,286047001.9,N
1589997235.8,286047003.4,N
1589997255.7,286047004.1,N
1589997275.5,286046999.8,N
1589997295.3,286047000.6,N
1589997315.2,286047000.8,N
1589997335.9,286047001.8,N
1589997355.7,286047002.6,N
1589997375.6,286047002.2,N
1589997395.4,286047003.3,N
1589997415.2,286047002.0,N
1589997435.1,286047002.1,N
1589997436.0,286047002.1,N
1589997455.8,286047002.8,N
1589997475.7,286047000.6,N
1589997495.5,286047000.7,N
1589997515.3,286047002.3,N
1589997535.2,286047004.1,Y
1589997555.0,286047001.6,P
1589997555.9,286047001.6,P
1589997575.8,286047001.6,P
1589997595.6,286047001.7,Y
